Regional Weather Roundup
Issued by NWS

Home | Current Version | Previous Version | Graphics & Text | Print | Product List | Glossary Off
Versions: 1 2 3 4 5 6 7 8 9 10 11 12 13 14 15 16 17 18 19 20 21 22 23 24 25 26 27 28 29 30 31 32 33 34 35 36 37 38 39 40 41 42 43 44 45 46 47 48 49 50

000
ASUS43 KTOP 031959
RWRKS

WEATHER ROUNDUP FOR KANSAS
NATIONAL WEATHER SERVICE GOODLAND KS
200 PM CST SAT DEC 03 2016

NOTE:  "FAIR" INDICATES FEW OR NO CLOUDS BELOW 12,000 FEET WITH NO
SIGNIFICANT WEATHER AND/OR OBSTRUCTIONS TO VISIBILITY.

KSZ001>006-013>018-027>032-041>047-032100-
NORTHWEST KANSAS

CITY           SKY/WX    TMP DP  RH WIND       PRES   REMARKS
GOODLAND       CLOUDY    36  26  67 S7        30.01F
HAYS           MIX PCPN  33  32  96 E9        30.09F FOG
HILL CITY      LGT SNOW  33  32  96 E6        30.09F FOG
RUSSELL        CLOUDY    34  32  92 E10       30.09F WCI  26
$$

KSZ061>065-074>080-084>089-032100-
SOUTHWEST KANSAS

CITY           SKY/WX    TMP DP  RH WIND       PRES   REMARKS
DODGE CITY     CLOUDY    38  36  92 SW6       30.06F
ELKHART          N/A     33  27  79 S7          N/A
GARDEN CITY    CLOUDY    35  34  96 S9        30.03F FOG
GREAT BEND     LGT RAIN  36  35  96 S6        30.10F FOG
LIBERAL        CLOUDY    37  34  87 S6        30.05F
$$

KSZ066>073-081>083-090>101-032100-
SOUTHEAST KANSAS

CITY           SKY/WX    TMP DP  RH WIND       PRES   REMARKS
CHANUTE        CLOUDY    53  35  50 S6        30.16F
COFFEYVILLE    CLOUDY    53  35  50 S7        30.15F
HUTCHINSON     LGT RAIN  40  37  89 S3        30.13F
MEDICINE LODGE   N/A     40  38  93 S5        30.11F
NEWTON         LGT RAIN  41  35  79 S6        30.13F
PARSONS        CLOUDY    53  34  48 S5        30.16F
WICHITA INTL   CLOUDY    43  37  79 S6        30.13F
WICHITA JABRA  CLOUDY    45  34  65 S5        30.13F
WINFIELD       LGT RAIN  45  37  73 N3        30.14F
$$

KSZ007>012-019>026-033>040-048>060-102>105-032100-
NORTHEAST KANSAS

CITY           SKY/WX    TMP DP  RH WIND       PRES   REMARKS
CONCORDIA      LGT RAIN  34  34 100 E5        30.14F FOG
EMPORIA        CLOUDY    46  31  55 SW5       30.14F
LAWRENCE       CLOUDY    47  30  51 E9        30.18F
MANHATTAN      LGT RAIN  39  34  82 E3        30.17F
OLATHE IND     CLOUDY    48  30  49 SE12      30.18F
OLATHE EXE     CLOUDY    47  30  51 E8        30.18F
SALINA         LGT RAIN  39  36  89 E5        30.14F
TOPEKA BILLARD CLOUDY    47  31  53 E7        30.17F
TOPEKA FORBES  CLOUDY    48  30  49 SE8       30.16F
$$



USA.gov is the U.S. government's official web portal to all federal, state and local government web resources and services.